User: anonymous   Login
Location: Stigler
(35.2540°N, 95.1230°W)
Time: 05:44:30
(UTC-05:00)
Language:

Cosmos 1805 - Orbit

View from above orbital plane
View from above orbital plane
View from above satellite
View from above satellite

Ground track
Ground track

The orbit data is extracted from the following two-line orbital elements,

1 17191U 86097A   17142.88526035 +.00000848 +00000-0 +47983-4 0  9996
2 17191 082.4776 054.3963 0005522 146.9313 213.2264 15.11740738659531
Epoch (UTC): 22 May 2017 21:14:46
Eccentricity: 0.0005522
inclination: 82.4776°
perigee height: 527 km
apogee height: 535 km
right ascension of ascending node: 54.3963°
argument of perigee: 146.9313°
revolutions per day: 15.11740738
mean anomaly at epoch: 213.2264°
orbit number at epoch: 65953

The dashed part of the orbit path shows where the satellite is in the earth's shadow,  

DLR